| time (UTC) | temp F | wind direction | speed knots | gust knots | rain 1hr in | rain 24hr in | rain mn in | humidity % | barometer mb |
| 20260901113005 | 82 | 205 | 2.6 | 5.2 | 0.69 | 0.84 | 0.84 | 52 | 1018.1 |
| 20260901112505 | 82 | 201 | 2.6 | 5.2 | 0.83 | 0.84 | 0.84 | 51 | 1018.1 |
| 20260901112005 | 82 | 222 | 1.7 | 5.2 | 0.83 | 0.84 | 0.84 | 51 | 1018.4 |
| 20260901111505 | 83 | 268 | 0.9 | 3.5 | 0.83 | 0.84 | 0.84 | 50 | 1018.4 |
| 20260901111005 | 84 | 336 | 0.0 | 1.7 | 0.79 | 0.80 | 0.80 | 48 | 1018.1 |
| 20260901110505 | 86 | 309 | 0.9 | 3.5 | 0.78 | 0.79 | 0.79 | 46 | 1018.3 |
| 20260901110005 | 86 | 312 | 0.9 | 6.1 | 0.78 | 0.79 | 0.79 | 46 | 1018.5 |
| 20260901105505 | 88 | 315 | 0.9 | 6.1 | 0.78 | 0.79 | 0.79 | 47 | 1018.3 |
| 20260901105005 | 91 | 262 | 0.0 | 0.9 | 0.78 | 0.79 | 0.79 | 45 | 1018.5 |
| 20260901104505 | 90 | 208 | 0.0 | 0.9 | 0.78 | 0.79 | 0.79 | 51 | 1018.3 |
| 20260901104026 | 90 | 135 | 0.0 | 0.9 | 0.54 | 0.56 | 0.57 | 53 | 1018.3 |
| 20260901103505 | 87 | 113 | 0.9 | 3.5 | 0.50 | 0.51 | 0.51 | 56 | 1018.5 |
| 20260901103005 | 84 | 72 | 0.9 | 3.5 | 0.14 | 0.15 | 0.15 | 57 | 1018.5 |
| 20260901102505 | 82 | 80 | 0.9 | 2.6 | 0.00 | 0.01 | 0.01 | 60 | 1018.5 |
| 20260901102005 | 81 | 76 | 1.7 | 4.3 | 0.00 | 0.01 | 0.01 | 63 | 1018.5 |
| 20260901101505 | 79 | 55 | 1.7 | 4.3 | 0.00 | 0.01 | 0.01 | 63 | 1018.5 |
| 20260901101005 | 78 | 304 | 0.0 | 1.7 | 0.00 | 0.01 | 0.01 | 62 | 1018.5 |
| 20260901100526 | 79 | 315 | 0.0 | 0.9 | 0.00 | 0.01 | 0.01 | 62 | 1018.6 |
| 20260901100005 | 79 | 315 | 0.0 | 0.9 | 0.00 | 0.01 | 0.01 | 62 | 1018.5 |
| 20260901095505 | 79 | 0 | 0.0 | 0.0 | 0.00 | 0.01 | 0.01 | 62 | 1018.5 |
| 20260901095005 | 79 | 0 | 0.0 | 0.0 | 0.00 | 0.01 | 0.01 | 62 | 1018.6 |
| 20260901094505 | 78 | 0 | 0.0 | 0.0 | 0.00 | 0.01 | 0.01 | 62 | 1018.7 |
| 20260901094005 | 78 | 288 | 0.0 | 3.5 | 0.00 | 0.01 | 0.01 | 62 | 1018.6 |
| 20260901093505 | 78 | 262 | 0.9 | 3.5 | 0.00 | 0.01 | 0.01 | 62 | 1018.8 |
| 20260901093005 | 78 | 289 | 1.7 | 6.1 | 0.01 | 0.01 | 0.01 | 62 | 1018.6 |
| 20260901092526 | 78 | 304 | 2.6 | 6.1 | 0.01 | 0.01 | 0.01 | 62 | 1018.6 |
| 20260901092005 | 77 | 313 | 2.6 | 4.3 | 0.01 | 0.01 | 0.01 | 62 | 1018.6 |
| 20260901091505 | 77 | 301 | 2.6 | 4.3 | 0.01 | 0.01 | 0.01 | 61 | 1018.7 |
| 20260901091005 | 77 | 254 | 3.5 | 4.3 | 0.01 | 0.01 | 0.01 | 60 | 1018.5 |
| 20260901090505 | 77 | 246 | 2.6 | 4.3 | 0.01 | 0.01 | 0.01 | 58 | 1018.6 |
| 20260901090005 | 77 | 254 | 0.0 | 0.9 | 0.01 | 0.01 | 0.01 | 57 | 1018.5 |
| 20260901085505 | 76 | 206 | 0.9 | 2.6 | 0.01 | 0.01 | 0.01 | 57 | 1018.6 |
| 20260901085005 | 76 | 191 | 0.9 | 2.6 | 0.01 | 0.01 | 0.01 | 56 | 1018.3 |
| 20260901084505 | 75 | 67 | 0.0 | 0.9 | 0.01 | 0.01 | 0.01 | 56 | 1018.4 |
| 20260901084005 | 75 | 16 | 0.9 | 3.5 | 0.01 | 0.01 | 0.01 | 56 | 1018.5 |
| 20260901083526 | 75 | 21 | 1.7 | 5.2 | 0.01 | 0.01 | 0.01 | 55 | 1018.3 |
| 20260901083005 | 75 | 39 | 4.3 | 7.0 | 0.00 | 0.00 | 0.00 | 55 | 1018.5 |
| 20260901082526 | 76 | 54 | 3.5 | 7.0 | 0.00 | 0.00 | 0.00 | 53 | 1018.3 |
| 20260901082005 | 76 | 57 | 0.9 | 4.3 | 0.00 | 0.00 | 0.00 | 53 | 1018.1 |
| 20260901081505 | 76 | 0 | 0.0 | 0.0 | 0.00 | 0.00 | 0.00 | 53 | 1018.1 |
| 20260901081005 | 76 | 0 | 0.0 | 0.0 | 0.00 | 0.00 | 0.00 | 53 | 1018.3 |
| 20260901080505 | 74 | 0 | 0.0 | 0.0 | 0.00 | 0.00 | 0.00 | 52 | 1018.3 |
| 20260901080026 | 74 | 0 | 0.0 | 0.0 | 0.00 | 0.00 | 0.00 | 52 | 1017.9 |
| 20260901075505 | 73 | 22 | 0.0 | 2.6 | 0.00 | 0.00 | 0.00 | 53 | 1018.1 |
| 20260901075005 | 73 | 22 | 0.0 | 2.6 | 0.00 | 0.00 | 0.00 | 53 | 1018.1 |
| 20260901074505 | 73 | 22 | 0.0 | 0.9 | 0.00 | 0.00 | 0.00 | 54 | 1017.7 |
| 20260901074005 | 73 | 22 | 0.0 | 0.9 | 0.00 | 0.00 | 0.00 | 54 | 1017.9 |
| 20260901073505 | 72 | 22 | 0.9 | 2.6 | 0.00 | 0.00 | 0.00 | 53 | 1017.7 |
| 20260901073005 | 72 | 22 | 0.9 | 3.5 | 0.00 | 0.00 | 0.00 | 53 | 1017.8 |
| 20260901072505 | 72 | 29 | 0.9 | 3.5 | 0.00 | 0.00 | 0.00 | 52 | 1017.7 |
| 20260901072005 | 73 | 28 | 1.7 | 3.5 | 0.00 | 0.00 | 0.00 | 52 | 1017.7 |
| 20260901071505 | 73 | 60 | 2.6 | 4.3 | 0.00 | 0.00 | 0.00 | 51 | 1017.7 |
| 20260901071005 | 73 | 72 | 3.5 | 4.3 | 0.00 | 0.00 | 0.00 | 50 | 1017.8 |
| 20260901070505 | 74 | 52 | 4.3 | 5.2 | 0.00 | 0.00 | 0.00 | 49 | 1017.7 |
| 20260901070005 | 74 | 28 | 1.7 | 5.2 | 0.00 | 0.00 | 0.00 | 49 | 1017.7 |
| 20260901065505 | 74 | 65 | 1.7 | 6.1 | 0.00 | 0.00 | 0.00 | 50 | 1017.7 |
| 20260901065005 | 74 | 71 | 3.5 | 6.1 | 0.00 | 0.00 | 0.00 | 49 | 1017.7 |
| 20260901064505 | 74 | 71 | 3.5 | 4.3 | 0.00 | 0.00 | 0.00 | 47 | 1017.7 |
| 20260901064005 | 74 | 56 | 1.7 | 4.3 | 0.00 | 0.00 | 0.00 | 45 | 1017.4 |
| 20260901063526 | 74 | 22 | 0.9 | 3.5 | 0.00 | 0.00 | 0.00 | 44 | 1017.4 |
| 20260901063005 | 74 | 39 | 1.7 | 7.0 | 0.00 | 0.00 | 0.00 | 43 | 1017.6 |
| 20260901062526 | 73 | 47 | 3.5 | 7.0 | 0.00 | 0.00 | 0.00 | 42 | 1017.5 |
| 20260901062026 | 73 | 49 | 4.3 | 7.0 | 0.00 | 0.00 | 0.00 | 42 | 1017.3 |
| 20260901061505 | 73 | 39 | 4.3 | 6.1 | 0.00 | 0.00 | 0.00 | 42 | 1017.2 |
| 20260901061005 | 73 | 14 | 4.3 | 6.1 | 0.00 | 0.00 | 0.00 | 42 | 1017.0 |
| 20260901060504 | 73 | 5 | 4.3 | 7.0 | 0.00 | 0.00 | 0.00 | 41 | 1016.9 |
| 20260901060005 | 73 | 16 | 5.2 | 7.0 | 0.00 | 0.00 | 0.00 | 41 | 1017.0 |
| 20260901055505 | 73 | 21 | 5.2 | 7.0 | 0.00 | 0.00 | 0.00 | 41 | 1016.8 |
| 20260901055005 | 72 | 34 | 4.3 | 7.0 | 0.00 | 0.00 | 0.00 | 41 | 1016.8 |
| 20260901054505 | 72 | 55 | 5.2 | 7.0 | 0.00 | 0.00 | 0.00 | 44 | 1016.7 |
| 20260901054005 | 72 | 53 | 6.1 | 7.8 | 0.00 | 0.00 | 0.00 | 44 | 1016.8 |
| 20260901053505 | 72 | 35 | 6.1 | 7.8 | 0.00 | 0.00 | 0.00 | 44 | 1016.6 |
| 20260901053005 | 72 | 30 | 4.3 | 7.0 | 0.00 | 0.00 | 0.00 | 44 | 1016.5 |
| 20260901052505 | 72 | 52 | 4.3 | 7.0 | 0.00 | 0.00 | 0.00 | 44 | 1016.5 |
| 20260901052005 | 72 | 42 | 6.1 | 7.0 | 0.00 | 0.00 | 0.00 | 44 | 1016.6 |
| 20260901051505 | 71 | 26 | 5.2 | 7.0 | 0.00 | 0.00 | 0.00 | 44 | 1016.6 |
| 20260901051026 | 71 | 35 | 5.2 | 7.0 | 0.00 | 0.00 | 0.00 | 45 | 1016.5 |
| 20260901050526 | 71 | 49 | 6.1 | 7.0 | 0.00 | 0.00 | 0.00 | 45 | 1016.4 |
| 20260901050005 | 71 | 42 | 5.2 | 7.0 | 0.00 | 0.00 | 0.00 | 45 | 1016.3 |
| 20260901045526 | 71 | 28 | 5.2 | 7.0 | 0.00 | 0.00 | 0.00 | 45 | 1016.2 |
| 20260901045005 | 71 | 24 | 6.1 | 9.6 | 0.00 | 0.00 | 0.00 | 45 | 1016.3 |
| 20260901044506 | 71 | 25 | 6.1 | 9.6 | 0.00 | 0.00 | 0.00 | 45 | 1016.2 |
| 20260901044005 | 70 | 47 | 5.2 | 7.0 | 0.00 | 0.00 | 0.00 | 45 | 1016.1 |
| 20260901043526 | 70 | 60 | 4.3 | 5.2 | 0.00 | 0.00 | 0.00 | 45 | 1015.9 |
| 20260901043026 | 70 | 63 | 3.5 | 5.2 | 0.00 | 0.00 | 0.00 | 45 | 1015.9 |
| 20260901042505 | 70 | 52 | 2.6 | 4.3 | 0.00 | 0.00 | 0.00 | 45 | 1016.0 |
| 20260901042004 | 71 | 23 | 4.3 | 7.0 | 0.00 | 0.00 | 0.00 | 45 | 1015.9 |
| 20260901041526 | 71 | 19 | 5.2 | 7.0 | 0.00 | 0.00 | 0.00 | 45 | 1015.8 |
| 20260901041005 | 71 | 51 | 5.2 | 5.2 | 0.00 | 0.00 | 0.00 | 45 | 1015.7 |
| 20260901040505 | 71 | 61 | 5.2 | 8.7 | 0.00 | 0.00 | 0.00 | 44 | 1015.7 |
| 20260901040004 | 71 | 47 | 6.1 | 9.6 | 0.00 | 0.00 | 0.00 | 44 | 1015.6 |
| 20260901035505 | 71 | 45 | 7.8 | 12.2 | 0.00 | 0.00 | 0.00 | 44 | 1015.3 |
| 20260901035005 | 71 | 45 | 8.7 | 12.2 | 0.00 | 0.00 | 0.00 | 45 | 1015.2 |
| 20260901034505 | 71 | 37 | 7.8 | 9.6 | 0.00 | 0.00 | 0.00 | 45 | 1015.1 |
| 20260901034005 | 71 | 35 | 7.8 | 9.6 | 0.00 | 0.00 | 0.00 | 45 | 1015.1 |
| 20260901033504 | 71 | 33 | 7.0 | 9.6 | 0.00 | 0.00 | 0.00 | 45 | 1015.1 |
| 20260901033005 | 71 | 24 | 7.0 | 11.3 | 0.00 | 0.00 | 0.00 | 45 | 1015.0 |
| 20260901032526 | 72 | 30 | 7.0 | 11.3 | 0.00 | 0.00 | 0.00 | 45 | 1014.9 |
| 20260901032004 | 72 | 24 | 8.7 | 12.2 | 0.00 | 0.00 | 0.00 | 45 | 1014.9 |
| 20260901031505 | 72 | 10 | 11.3 | 13.0 | 0.00 | 0.00 | 0.00 | 45 | 1014.9 |
| 20260901031004 | 72 | 12 | 9.6 | 13.0 | 0.00 | 0.00 | 0.00 | 45 | 1015.0 |
| 20260901030504 | 72 | 17 | 7.8 | 11.3 | 0.00 | 0.00 | 0.00 | 45 | 1015.0 |
| 20260901030005 | 72 | 20 | 7.8 | 13.0 | 0.00 | 0.00 | 0.00 | 45 | 1015.0 |
| 20260901025505 | 72 | 23 | 7.8 | 13.0 | 0.00 | 0.00 | 0.00 | 45 | 1014.8 |
| 20260901025004 | 72 | 20 | 8.7 | 13.0 | 0.00 | 0.00 | 0.00 | 45 | 1015.0 |
| 20260901024504 | 72 | 15 | 8.7 | 9.6 | 0.00 | 0.00 | 0.00 | 42 | 1015.0 |
| 20260901024026 | 72 | 28 | 7.0 | 9.6 | 0.00 | 0.00 | 0.00 | 42 | 1015.0 |
| 20260901023505 | 73 | 42 | 7.0 | 9.6 | 0.00 | 0.00 | 0.00 | 42 | 1015.0 |
| 20260901023005 | 73 | 35 | 7.0 | 9.6 | 0.00 | 0.00 | 0.00 | 42 | 1015.1 |
| 20260901022505 | 72 | 29 | 6.1 | 7.8 | 0.00 | 0.00 | 0.00 | 43 | 1015.1 |
| 20260901022004 | 73 | 20 | 5.2 | 7.0 | 0.00 | 0.00 | 0.00 | 42 | 1015.0 |
| 20260901021505 | 73 | 13 | 6.1 | 8.7 | 0.00 | 0.00 | 0.00 | 42 | 1015.1 |
| 20260901021004 | 73 | 18 | 7.0 | 8.7 | 0.00 | 0.00 | 0.00 | 42 | 1014.9 |
| 20260901020526 | 73 | 22 | 7.0 | 8.7 | 0.00 | 0.00 | 0.00 | 42 | 1015.1 |
| 20260901020026 | 73 | 16 | 6.1 | 8.7 | 0.00 | 0.00 | 0.00 | 42 | 1014.9 |
| 20260901015505 | 74 | 9 | 5.2 | 7.0 | 0.00 | 0.00 | 0.00 | 42 | 1015.0 |
| 20260901015005 | 74 | 17 | 5.2 | 8.7 | 0.00 | 0.00 | 0.00 | 42 | 1015.0 |
| 20260901014505 | 74 | 17 | 4.3 | 8.7 | 0.00 | 0.00 | 0.00 | 42 | 1015.0 |
| 20260901014004 | 74 | 22 | 4.3 | 7.0 | 0.00 | 0.00 | 0.00 | 43 | 1015.0 |
| 20260901013505 | 74 | 19 | 5.2 | 7.0 | 0.00 | 0.00 | 0.00 | 43 | 1014.9 |
| 20260901013005 | 74 | 2 | 4.3 | 6.1 | 0.00 | 0.00 | 0.00 | 43 | 1014.8 |
| 20260901012526 | 74 | 5 | 4.3 | 6.1 | 0.00 | 0.00 | 0.00 | 44 | 1015.0 |
| 20260901012005 | 73 | 18 | 5.2 | 7.0 | 0.00 | 0.00 | 0.00 | 45 | 1014.9 |
| 20260901011504 | 73 | 15 | 5.2 | 7.8 | 0.00 | 0.00 | 0.00 | 45 | 1015.0 |
| 20260901011005 | 73 | 11 | 5.2 | 7.8 | 0.00 | 0.00 | 0.00 | 46 | 1015.0 |
| 20260901010505 | 73 | 11 | 5.2 | 7.0 | 0.00 | 0.00 | 0.00 | 47 | 1014.9 |
| 20260901010005 | 73 | 355 | 4.3 | 7.0 | 0.00 | 0.00 | 0.00 | 49 | 1014.9 |
| 20260901005526 | 72 | 355 | 3.5 | 7.0 | 0.00 | 0.00 | 0.00 | 50 | 1014.8 |
| 20260901005005 | 72 | 5 | 2.6 | 6.1 | 0.00 | 0.00 | 0.00 | 51 | 1014.9 |
| 20260901004526 | 72 | 10 | 2.6 | 7.0 | 0.00 | 0.00 | 0.00 | 51 | 1014.8 |
| 20260901004004 | 72 | 6 | 4.3 | 7.0 | 0.00 | 0.00 | 0.00 | 52 | 1014.8 |
| 20260901003505 | 72 | 4 | 3.5 | 7.0 | 0.00 | 0.00 | 0.00 | 52 | 1014.8 |
| 20260901003005 | 73 | 17 | 2.6 | 3.5 | 0.00 | 0.00 | 0.00 | 53 | 1014.8 |
| 20260901002526 | 73 | 11 | 3.5 | 6.1 | 0.00 | 0.00 | 0.00 | 53 | 1015.0 |
| 20260901002005 | 73 | 15 | 4.3 | 6.1 | 0.00 | 0.00 | 0.00 | 54 | 1014.9 |
| 20260901001526 | 73 | 28 | 3.5 | 6.1 | 0.00 | 0.00 | 0.00 | 55 | 1014.9 |
| 20260901001004 | 73 | 24 | 3.5 | 3.5 | 0.00 | 0.00 | 0.00 | 56 | 1014.9 |
| 20260901000526 | 73 | 21 | 4.3 | 6.1 | 0.00 | 0.00 | 0.00 | 58 | 1014.9 |
| 20260901000005 | 73 | 20 | 3.5 | 6.1 | 0.00 | 0.00 | 0.00 | 58 | 1014.9 |
| 20260831235526 | 73 | 14 | 2.6 | 5.2 | 0.00 | 0.00 | 0.00 | 59 | 1015.0 |
| 20260831235005 | 73 | 7 | 1.7 | 3.5 | 0.00 | 0.00 | 0.00 | 60 | 1014.9 |
| 20260831234504 | 73 | 13 | 0.0 | 0.9 | 0.00 | 0.00 | 0.00 | 60 | 1014.8 |
| 20260831234005 | 73 | 353 | 0.9 | 1.7 | 0.00 | 0.00 | 0.00 | 60 | 1015.0 |
| 20260831233505 | 73 | 8 | 0.9 | 3.5 | 0.00 | 0.00 | 0.00 | 60 | 1014.9 |
| 20260831233005 | 73 | 21 | 1.7 | 3.5 | 0.00 | 0.00 | 0.00 | 61 | 1014.7 |
| 20260831232526 | 73 | 20 | 1.7 | 2.6 | 0.00 | 0.00 | 0.00 | 61 | 1014.9 |
| 20260831232005 | 73 | 15 | 1.7 | 3.5 | 0.00 | 0.00 | 0.00 | 61 | 1014.8 |
| 20260831231505 | 73 | 15 | 2.6 | 3.5 | 0.00 | 0.00 | 0.00 | 62 | 1014.8 |
| 20260831231004 | 73 | 18 | 1.7 | 3.5 | 0.00 | 0.00 | 0.00 | 63 | 1014.5 |
| 20260831230504 | 73 | 17 | 0.9 | 3.5 | 0.00 | 0.00 | 0.00 | 63 | 1014.7 |
| 20260831230004 | 73 | 12 | 0.9 | 1.7 | 0.00 | 0.00 | 0.00 | 64 | 1014.8 |
| 20260831225525 | 73 | 7 | 0.9 | 1.7 | 0.00 | 0.00 | 0.00 | 64 | 1014.6 |
| 20260831225004 | 73 | 7 | 0.9 | 1.7 | 0.00 | 0.00 | 0.00 | 64 | 1014.6 |
| 20260831224504 | 73 | 13 | 0.9 | 1.7 | 0.00 | 0.00 | 0.00 | 64 | 1014.6 |
| 20260831224025 | 73 | 5 | 0.0 | 1.7 | 0.00 | 0.00 | 0.00 | 64 | 1014.5 |
| 20260831223504 | 74 | 6 | 0.9 | 1.7 | 0.00 | 0.00 | 0.00 | 63 | 1014.5 |
| 20260831223004 | 74 | 10 | 0.9 | 1.7 | 0.00 | 0.00 | 0.00 | 64 | 1014.6 |
| 20260831222504 | 74 | 12 | 0.9 | 1.7 | 0.00 | 0.00 | 0.00 | 64 | 1014.6 |
| 20260831222004 | 74 | 13 | 0.9 | 1.7 | 0.00 | 0.00 | 0.00 | 64 | 1014.6 |
| 20260831221504 | 74 | 25 | 0.0 | 0.9 | 0.00 | 0.00 | 0.00 | 65 | 1014.6 |
| 20260831221004 | 74 | 0 | 0.0 | 0.0 | 0.00 | 0.00 | 0.00 | 65 | 1014.5 |
| 20260831220525 | 74 | 9 | 0.0 | 0.9 | 0.00 | 0.00 | 0.00 | 65 | 1014.6 |
| 20260831220004 | 74 | 9 | 0.0 | 0.9 | 0.00 | 0.00 | 0.00 | 65 | 1014.5 |
| 20260831215504 | 74 | 0 | 0.0 | 0.0 | 0.00 | 0.00 | 0.00 | 64 | 1014.5 |
| 20260831215004 | 74 | 360 | 0.0 | 0.9 | 0.00 | 0.00 | 0.00 | 64 | 1014.4 |
| 20260831214525 | 74 | 13 | 0.0 | 0.9 | 0.00 | 0.00 | 0.00 | 64 | 1014.4 |
| 20260831214004 | 74 | 22 | 0.0 | 0.9 | 0.00 | 0.00 | 0.00 | 64 | 1014.5 |
| 20260831213504 | 74 | 0 | 0.0 | 0.0 | 0.00 | 0.00 | 0.00 | 65 | 1014.4 |
| 20260831213004 | 74 | 0 | 0.0 | 0.0 | 0.00 | 0.00 | 0.00 | 65 | 1014.4 |
| 20260831212504 | 75 | 0 | 0.0 | 0.0 | 0.00 | 0.00 | 0.00 | 65 | 1014.3 |
| 20260831212004 | 75 | 0 | 0.0 | 0.0 | 0.00 | 0.00 | 0.00 | 65 | 1014.4 |
| 20260831211504 | 75 | 0 | 0.0 | 0.0 | 0.00 | 0.00 | 0.00 | 65 | 1014.3 |
| 20260831211004 | 75 | 0 | 0.0 | 0.0 | 0.00 | 0.00 | 0.00 | 64 | 1014.3 |
| 20260831210504 | 75 | 0 | 0.0 | 0.0 | 0.00 | 0.00 | 0.00 | 64 | 1014.4 |
| 20260831210004 | 75 | 0 | 0.0 | 0.0 | 0.00 | 0.00 | 0.00 | 63 | 1014.2 |
| 20260831205504 | 75 | 0 | 0.0 | 0.0 | 0.00 | 0.00 | 0.00 | 63 | 1014.3 |
| 20260831205004 | 75 | 0 | 0.0 | 0.0 | 0.00 | 0.00 | 0.00 | 62 | 1014.2 |
| 20260831204504 | 76 | 0 | 0.0 | 0.0 | 0.00 | 0.00 | 0.00 | 62 | 1014.3 |
| 20260831204025 | 76 | 0 | 0.0 | 0.0 | 0.00 | 0.00 | 0.00 | 62 | 1014.3 |
| 20260831203504 | 76 | 0 | 0.0 | 0.0 | 0.00 | 0.00 | 0.00 | 61 | 1014.3 |
| 20260831203004 | 76 | 0 | 0.0 | 0.0 | 0.00 | 0.00 | 0.00 | 61 | 1014.2 |
| 20260831202504 | 76 | 0 | 0.0 | 0.0 | 0.00 | 0.00 | 0.00 | 60 | 1014.0 |
| 20260831202025 | 76 | 0 | 0.0 | 0.0 | 0.00 | 0.00 | 0.00 | 60 | 1014.0 |
| 20260831201504 | 76 | 22 | 0.0 | 0.9 | 0.00 | 0.00 | 0.00 | 60 | 1014.1 |
| 20260831201025 | 77 | 22 | 0.0 | 0.9 | 0.00 | 0.00 | 0.00 | 60 | 1013.9 |
| 20260831200504 | 77 | 19 | 0.9 | 2.6 | 0.00 | 0.00 | 0.00 | 60 | 1013.9 |
| 20260831200025 | 77 | 19 | 0.9 | 2.6 | 0.00 | 0.00 | 0.00 | 60 | 1013.8 |
| 20260831195525 | 77 | 22 | 0.0 | 2.6 | 0.00 | 0.00 | 0.00 | 59 | 1013.8 |
| 20260831195004 | 77 | 0 | 0.0 | 0.0 | 0.00 | 0.00 | 0.00 | 58 | 1013.8 |
| 20260831194504 | 78 | 0 | 0.0 | 0.0 | 0.00 | 0.00 | 0.00 | 58 | 1013.8 |
| 20260831194004 | 78 | 0 | 0.0 | 0.0 | 0.00 | 0.00 | 0.00 | 57 | 1013.7 |
| 20260831193504 | 78 | 0 | 0.0 | 0.0 | 0.00 | 0.00 | 0.00 | 56 | 1013.7 |
| 20260831193004 | 78 | 0 | 0.0 | 0.0 | 0.00 | 0.00 | 0.00 | 56 | 1013.7 |
| 20260831192504 | 78 | 0 | 0.0 | 0.0 | 0.00 | 0.00 | 0.00 | 56 | 1013.6 |
| 20260831192004 | 78 | 0 | 0.0 | 0.0 | 0.00 | 0.00 | 0.00 | 56 | 1013.6 |
| 20260831191504 | 78 | 0 | 0.0 | 0.0 | 0.00 | 0.00 | 0.00 | 55 | 1013.7 |
| 20260831191004 | 78 | 0 | 0.0 | 0.0 | 0.00 | 0.00 | 0.00 | 55 | 1013.9 |
| 20260831190525 | 78 | 0 | 0.0 | 0.0 | 0.00 | 0.00 | 0.00 | 55 | 1013.6 |
| 20260831190004 | 78 | 0 | 0.0 | 0.0 | 0.00 | 0.00 | 0.00 | 55 | 1013.4 |
| 20260831185504 | 78 | 0 | 0.0 | 0.0 | 0.00 | 0.00 | 0.00 | 55 | 1013.5 |
| 20260831185004 | 78 | 0 | 0.0 | 0.0 | 0.00 | 0.00 | 0.00 | 54 | 1013.5 |
| 20260831184504 | 78 | 0 | 0.0 | 0.0 | 0.00 | 0.00 | 0.00 | 54 | 1013.4 |
| 20260831184004 | 78 | 0 | 0.0 | 0.0 | 0.00 | 0.00 | 0.00 | 54 | 1013.3 |
| 20260831183504 | 79 | 0 | 0.0 | 0.0 | 0.00 | 0.00 | 0.00 | 53 | 1013.1 |
| 20260831183004 | 79 | 0 | 0.0 | 0.0 | 0.00 | 0.00 | 0.00 | 53 | 1013.2 |
| 20260831182504 | 80 | 0 | 0.0 | 0.0 | 0.00 | 0.00 | 0.00 | 52 | 1013.2 |
| 20260831182004 | 80 | 0 | 0.0 | 0.0 | 0.00 | 0.00 | 0.00 | 52 | 1013.0 |
| 20260831181504 | 80 | 0 | 0.0 | 0.0 | 0.00 | 0.00 | 0.00 | 52 | 1013.0 |
| 20260831181004 | 80 | 0 | 0.0 | 0.0 | 0.00 | 0.00 | 0.00 | 52 | 1013.0 |
| 20260831180504 | 81 | 0 | 0.0 | 0.0 | 0.00 | 0.00 | 0.00 | 52 | 1013.0 |
| 20260831180025 | 81 | 0 | 0.0 | 0.0 | 0.00 | 0.00 | 0.00 | 52 | 1012.8 |
| 20260831175504 | 81 | 0 | 0.0 | 0.0 | 0.00 | 0.00 | 0.00 | 51 | 1012.9 |
| 20260831175004 | 81 | 0 | 0.0 | 0.0 | 0.00 | 0.00 | 0.00 | 51 | 1013.1 |
| 20260831174504 | 82 | 360 | 0.0 | 0.9 | 0.00 | 0.00 | 0.00 | 46 | 1012.9 |
| 20260831174004 | 82 | 360 | 0.0 | 0.9 | 0.00 | 0.00 | 0.00 | 46 | 1013.1 |
| 20260831173504 | 83 | 0 | 0.0 | 0.0 | 0.00 | 0.00 | 0.00 | 46 | 1013.0 |
| 20260831173004 | 83 | 0 | 0.0 | 0.0 | 0.00 | 0.00 | 0.00 | 45 | 1012.9 |
| 20260831172525 | 84 | 0 | 0.0 | 0.0 | 0.00 | 0.00 | 0.00 | 45 | 1013.1 |
| 20260831172004 | 85 | 0 | 0.0 | 0.0 | 0.00 | 0.00 | 0.00 | 44 | 1013.0 |
| 20260831171525 | 86 | 0 | 0.0 | 0.0 | 0.00 | 0.00 | 0.00 | 44 | 1013.0 |
| 20260831171004 | 86 | 0 | 0.0 | 0.0 | 0.00 | 0.00 | 0.00 | 44 | 1013.0 |
| 20260831170504 | 86 | 315 | 0.0 | 0.9 | 0.00 | 0.00 | 0.00 | 43 | 1012.9 |
| 20260831170004 | 86 | 315 | 0.0 | 0.9 | 0.00 | 0.00 | 0.00 | 43 | 1012.8 |
| 20260831165504 | 86 | 315 | 0.0 | 0.9 | 0.00 | 0.00 | 0.00 | 43 | 1012.8 |
| 20260831165004 | 86 | 315 | 0.0 | 0.9 | 0.00 | 0.00 | 0.00 | 43 | 1013.1 |
| 20260831164504 | 86 | 304 | 0.0 | 1.7 | 0.00 | 0.00 | 0.00 | 42 | 1013.0 |
| 20260831164004 | 87 | 287 | 0.0 | 1.7 | 0.00 | 0.00 | 0.00 | 42 | 1013.1 |
| 20260831163504 | 87 | 275 | 0.0 | 0.9 | 0.00 | 0.00 | 0.00 | 43 | 1012.9 |
| 20260831163004 | 87 | 300 | 0.0 | 0.9 | 0.00 | 0.00 | 0.00 | 43 | 1013.2 |
| 20260831162504 | 87 | 247 | 0.0 | 1.7 | 0.00 | 0.00 | 0.00 | 43 | 1013.0 |
| 20260831162025 | 87 | 247 | 0.9 | 1.7 | 0.00 | 0.00 | 0.00 | 43 | 1013.1 |
| 20260831161504 | 87 | 247 | 0.0 | 0.9 | 0.00 | 0.00 | 0.00 | 43 | 1013.1 |
| 20260831161004 | 87 | 247 | 0.0 | 0.9 | 0.00 | 0.00 | 0.00 | 43 | 1013.1 |
| 20260831160504 | 87 | 289 | 0.0 | 1.7 | 0.00 | 0.00 | 0.00 | 43 | 1013.1 |
| 20260831160004 | 87 | 308 | 0.9 | 1.7 | 0.00 | 0.00 | 0.00 | 43 | 1013.1 |
| 20260831155504 | 87 | 319 | 0.9 | 3.5 | 0.00 | 0.00 | 0.00 | 43 | 1013.0 |
| 20260831155004 | 87 | 317 | 0.9 | 3.5 | 0.00 | 0.00 | 0.00 | 43 | 1013.1 |
| 20260831154504 | 87 | 247 | 0.0 | 0.9 | 0.00 | 0.00 | 0.00 | 43 | 1013.2 |
| 20260831154004 | 87 | 307 | 0.9 | 3.5 | 0.00 | 0.00 | 0.00 | 43 | 1013.3 |
| 20260831153504 | 87 | 297 | 2.6 | 4.3 | 0.00 | 0.00 | 0.00 | 43 | 1013.4 |
| 20260831153004 | 87 | 272 | 3.5 | 7.0 | 0.00 | 0.00 | 0.00 | 42 | 1013.3 |
| 20260831152504 | 87 | 274 | 2.6 | 7.0 | 0.00 | 0.00 | 0.00 | 43 | 1013.2 |
| 20260831152003 | 87 | 280 | 1.7 | 3.5 | 0.00 | 0.00 | 0.00 | 43 | 1013.2 |
| 20260831151504 | 87 | 280 | 1.7 | 5.2 | 0.00 | 0.00 | 0.00 | 43 | 1013.4 |
| 20260831151025 | 87 | 315 | 0.9 | 5.2 | 0.00 | 0.00 | 0.00 | 43 | 1013.5 |
| 20260831150504 | 88 | 286 | 0.9 | 3.5 | 0.00 | 0.00 | 0.00 | 42 | 1013.4 |
| 20260831150004 | 88 | 278 | 0.9 | 3.5 | 0.00 | 0.00 | 0.00 | 42 | 1013.4 |
| 20260831145504 | 88 | 299 | 0.0 | 1.7 | 0.00 | 0.00 | 0.00 | 42 | 1013.4 |
| 20260831145004 | 88 | 254 | 0.9 | 5.2 | 0.00 | 0.00 | 0.00 | 43 | 1013.5 |
| 20260831144504 | 88 | 254 | 0.9 | 5.2 | 0.00 | 0.00 | 0.00 | 42 | 1013.5 |
| 20260831144025 | 88 | 283 | 0.9 | 5.2 | 0.00 | 0.00 | 0.00 | 42 | 1013.4 |
| 20260831143504 | 88 | 275 | 0.9 | 2.6 | 0.00 | 0.00 | 0.00 | 42 | 1013.4 |
| 20260831143004 | 88 | 255 | 0.9 | 2.6 | 0.00 | 0.00 | 0.00 | 42 | 1013.5 |
| 20260831142504 | 88 | 279 | 0.0 | 5.2 | 0.00 | 0.00 | 0.00 | 42 | 1013.3 |
| 20260831142004 | 88 | 258 | 2.6 | 5.2 | 0.00 | 0.00 | 0.00 | 42 | 1013.3 |
| 20260831141525 | 88 | 254 | 3.5 | 5.2 | 0.00 | 0.00 | 0.00 | 42 | 1013.6 |
| 20260831141004 | 88 | 267 | 0.9 | 4.3 | 0.00 | 0.00 | 0.00 | 42 | 1013.3 |
| 20260831140504 | 87 | 346 | 0.9 | 3.5 | 0.00 | 0.00 | 0.00 | 42 | 1013.5 |
| 20260831140004 | 87 | 263 | 1.7 | 3.5 | 0.00 | 0.00 | 0.00 | 42 | 1013.5 |
| 20260831135504 | 87 | 251 | 0.9 | 3.5 | 0.00 | 0.00 | 0.00 | 42 | 1013.5 |
| 20260831135004 | 87 | 224 | 0.0 | 0.9 | 0.00 | 0.00 | 0.00 | 42 | 1013.5 |
| 20260831134503 | 87 | 212 | 2.6 | 7.0 | 0.00 | 0.00 | 0.00 | 43 | 1013.5 |
| 20260831134004 | 87 | 226 | 4.3 | 7.8 | 0.00 | 0.00 | 0.00 | 42 | 1013.5 |
| 20260831133503 | 87 | 249 | 5.2 | 7.8 | 0.00 | 0.00 | 0.00 | 42 | 1013.6 |
| 20260831133004 | 87 | 264 | 3.5 | 7.8 | 0.00 | 0.00 | 0.00 | 43 | 1013.5 |
| 20260831132504 | 87 | 291 | 1.7 | 7.0 | 0.00 | 0.00 | 0.00 | 43 | 1013.6 |
| 20260831132004 | 87 | 261 | 3.5 | 7.0 | 0.00 | 0.00 | 0.00 | 42 | 1013.6 |
| 20260831131504 | 87 | 270 | 3.5 | 7.0 | 0.00 | 0.00 | 0.00 | 42 | 1013.7 |
| 20260831131004 | 87 | 317 | 2.6 | 3.5 | 0.00 | 0.00 | 0.00 | 42 | 1013.7 |
| 20260831130504 | 87 | 295 | 3.5 | 6.1 | 0.00 | 0.00 | 0.00 | 42 | 1013.7 |
| 20260831130004 | 87 | 269 | 1.7 | 6.1 | 0.00 | 0.00 | 0.00 | 42 | 1013.9 |
| 20260831125504 | 86 | 229 | 0.9 | 7.0 | 0.00 | 0.00 | 0.00 | 43 | 1013.8 |
| 20260831125004 | 86 | 241 | 1.7 | 7.0 | 0.00 | 0.00 | 0.00 | 43 | 1013.9 |
| 20260831124504 | 86 | 232 | 1.7 | 6.1 | 0.00 | 0.00 | 0.00 | 42 | 1013.9 |
| 20260831124004 | 86 | 221 | 0.9 | 3.5 | 0.00 | 0.00 | 0.00 | 42 | 1014.1 |
| 20260831123503 | 86 | 288 | 1.7 | 5.2 | 0.00 | 0.00 | 0.00 | 42 | 1014.1 |
| 20260831123004 | 86 | 289 | 2.6 | 5.2 | 0.00 | 0.00 | 0.00 | 43 | 1014.0 |
| 20260831122504 | 86 | 252 | 3.5 | 7.0 | 0.00 | 0.00 | 0.00 | 42 | 1014.0 |
| 20260831122025 | 85 | 228 | 2.6 | 7.0 | 0.00 | 0.00 | 0.00 | 43 | 1014.2 |
| 20260831121503 | 85 | 205 | 2.6 | 7.0 | 0.00 | 0.00 | 0.00 | 43 | 1014.1 |
| 20260831121004 | 85 | 208 | 2.6 | 7.0 | 0.00 | 0.00 | 0.00 | 43 | 1014.2 |
| 20260831120504 | 85 | 213 | 3.5 | 4.3 | 0.00 | 0.00 | 0.00 | 43 | 1014.2 |
| 20260831120003 | 85 | 200 | 4.3 | 7.0 | 0.00 | 0.00 | 0.00 | 43 | 1014.3 |
| 20260831115504 | 85 | 186 | 3.5 | 7.0 | 0.00 | 0.00 | 0.00 | 43 | 1014.3 |
| 20260831115004 | 85 | 240 | 1.7 | 5.2 | 0.00 | 0.00 | 0.00 | 44 | 1014.3 |
| 20260831114504 | 85 | 217 | 2.6 | 5.2 | 0.00 | 0.00 | 0.00 | 44 | 1014.3 |
| 20260831114004 | 85 | 203 | 3.5 | 7.0 | 0.00 | 0.00 | 0.00 | 45 | 1014.3 |
| 20260831113503 | 85 | 210 | 2.6 | 7.0 | 0.00 | 0.00 | 0.00 | 45 | 1014.3 |